User: anonymous   Login
Location: Slanting_Bridge
(35.6330°N, 80.9830°W)
Time: 14:08:00
(UTC-05:00)
Language:

Hamsat - Orbit

View from above orbital plane
View from above orbital plane
View from above satellite
View from above satellite

Ground track
Ground track

The orbit data is extracted from the following two-line orbital elements,

1 28650U 05017B   17057.51486321  .00000433  00000-0  52022-4 0  9999
2 28650  97.6389  35.6914 0024654 134.4470 225.8770 14.88570802639706
Epoch (UTC): 26 February 2017 12:21:24
Eccentricity: 0.0024654
inclination: 97.6389°
perigee height: 585 km
apogee height: 619 km
right ascension of ascending node: 35.6914°
argument of perigee: 134.4470°
revolutions per day: 14.88570802
mean anomaly at epoch: 225.8770°
orbit number at epoch: 63970

The dashed part of the orbit path shows where the satellite is in the earth's shadow,  

DLR